User: anonymous   Login
Location: Unspecified
(0.0000°N, 0.0000°E)
Time: 12:00:00
(UTC+02:00)
Language:

Cosmos 1933 - Orbit

View from above orbital plane
View from above orbital plane
View from above satellite
View from above satellite

Ground track
Ground track

The orbit data is extracted from the following two-line orbital elements,

1 18958U 88020A   15140.88584679  .00002171  00000-0  16289-3 0  9995
2 18958 082.5291 115.0508 0011489 348.6439 011.4525 15.02130481477641
Epoch (UTC): 20 May 2015 21:15:37
Eccentricity: 0.0011489
inclination: 82.5291°
perigee height: 552 km
apogee height: 568 km
right ascension of ascending node: 115.0508°
argument of perigee: 348.6439°
revolutions per day: 15.02130481
mean anomaly at epoch: 11.4525°
orbit number at epoch: 47764

The dashed part of the orbit path shows where the satellite is in the earth's shadow,  

DLR